| time (UTC) | temp F | wind direction | speed knots | gust knots | rain 1hr in | rain 24hr in | rain mn in | humidity % | barometer mb |
| 20260507043707 | 40 | 97 | 0.9 | 5.2 | 0.00 | 0.00 | 0.00 | 62 | 1017.5 |
| 20260507042715 | 40 | 85 | 0.9 | 2.6 | 0.00 | 0.00 | 0.00 | 62 | 1017.6 |
| 20260507041709 | 41 | 85 | 0.9 | 2.6 | 0.00 | 0.00 | 0.00 | 60 | 1017.6 |
| 20260507040723 | 41 | 83 | 0.9 | 2.6 | 0.00 | 0.00 | 0.00 | 60 | 1017.6 |
| 20260507035658 | 42 | 95 | 0.9 | 2.6 | 0.00 | 0.00 | 0.00 | 58 | 1017.7 |
| 20260507034637 | 42 | 101 | 0.9 | 2.6 | 0.00 | 0.00 | 0.00 | 59 | 1017.6 |
| 20260507032556 | 43 | 99 | 0.9 | 4.3 | 0.00 | 0.00 | 0.00 | 59 | 1017.9 |
| 20260507031600 | 43 | 97 | 0.0 | 4.3 | 0.00 | 0.00 | 0.00 | 58 | 1018.0 |
| 20260507030609 | 44 | 92 | 0.9 | 1.7 | 0.00 | 0.00 | 0.00 | 55 | 1017.9 |
| 20260507023613 | 46 | 61 | 0.0 | 0.9 | 0.00 | 0.00 | 0.00 | 53 | 1017.9 |
| 20260507022556 | 46 | 61 | 0.0 | 2.6 | 0.00 | 0.00 | 0.00 | 52 | 1017.9 |
| 20260507021546 | 46 | 61 | 0.0 | 2.6 | 0.00 | 0.00 | 0.00 | 52 | 1017.9 |
| 20260507020555 | 47 | 68 | 0.0 | 2.6 | 0.00 | 0.00 | 0.00 | 51 | 1017.8 |
| 20260507015618 | 47 | 60 | 0.0 | 2.6 | 0.00 | 0.00 | 0.00 | 51 | 1017.8 |
| 20260507013554 | 48 | 11 | 0.0 | 0.0 | 0.00 | 0.00 | 0.00 | 49 | 1017.7 |
| 20260507011529 | 49 | 349 | 0.0 | 2.6 | 0.00 | 0.00 | 0.00 | 48 | 1017.7 |
| 20260507010528 | 49 | 332 | 0.9 | 7.8 | 0.00 | 0.00 | 0.00 | 47 | 1017.7 |
| 20260507005518 | 50 | 321 | 1.7 | 7.0 | 0.00 | 0.00 | 0.00 | 46 | 1017.8 |
| 20260507004444 | 51 | 326 | 1.7 | 8.7 | 0.00 | 0.00 | 0.00 | 45 | 1017.8 |
| 20260507002410 | 50 | 277 | 2.6 | 7.8 | 0.00 | 0.00 | 0.00 | 46 | 1017.8 |
| 20260507001428 | 51 | 322 | 1.7 | 7.8 | 0.00 | 0.00 | 0.00 | 45 | 1017.8 |
| 20260506235441 | 51 | 300 | 4.3 | 12.2 | 0.00 | 0.00 | 0.00 | 43 | 1018.0 |
| 20260506234426 | 51 | 295 | 3.5 | 8.7 | 0.00 | 0.00 | 0.00 | 44 | 1018.0 |
| 20260506231317 | 51 | 323 | 3.5 | 8.7 | 0.00 | 0.00 | 0.00 | 44 | 1018.1 |
| 20260506230316 | 51 | 315 | 3.5 | 13.0 | 0.00 | 0.00 | 0.00 | 44 | 1018.2 |
| 20260506225251 | 52 | 341 | 6.1 | 13.0 | 0.00 | 0.00 | 0.00 | 44 | 1018.4 |
| 20260506223258 | 52 | 295 | 4.3 | 12.2 | 0.00 | 0.00 | 0.00 | 44 | 1018.3 |
| 20260506222234 | 52 | 271 | 4.3 | 10.4 | 0.00 | 0.00 | 0.00 | 44 | 1018.4 |
| 20260506221208 | 51 | 285 | 4.3 | 13.0 | 0.00 | 0.00 | 0.00 | 46 | 1018.5 |
| 20260506220150 | 51 | 326 | 6.1 | 13.0 | 0.00 | 0.00 | 0.00 | 45 | 1018.5 |
| 20260506215135 | 51 | 283 | 4.3 | 10.4 | 0.00 | 0.00 | 0.00 | 43 | 1018.5 |
| 20260506214102 | 51 | 304 | 5.2 | 11.3 | 0.00 | 0.00 | 0.00 | 44 | 1018.8 |
| 20260506212044 | 50 | 264 | 6.1 | 11.3 | 0.00 | 0.00 | 0.00 | 44 | 1018.8 |
| 20260506211035 | 50 | 305 | 6.1 | 13.0 | 0.00 | 0.00 | 0.00 | 47 | 1019.0 |
| 20260506210011 | 51 | 328 | 6.1 | 16.5 | 0.00 | 0.00 | 0.00 | 47 | 1019.1 |
| 20260506204013 | 50 | 283 | 5.2 | 14.8 | 0.00 | 0.00 | 0.00 | 46 | 1019.5 |
| 20260506203036 | 50 | 262 | 6.1 | 13.9 | 0.00 | 0.00 | 0.00 | 44 | 1019.6 |
| 20260506202020 | 50 | 295 | 6.1 | 13.9 | 0.00 | 0.00 | 0.00 | 46 | 1019.5 |
| 20260506201012 | 50 | 354 | 6.1 | 12.2 | 0.00 | 0.00 | 0.00 | 45 | 1019.5 |
| 20260506200018 | 50 | 281 | 7.0 | 14.8 | 0.00 | 0.00 | 0.00 | 47 | 1019.8 |
| 20260506195020 | 49 | 273 | 6.1 | 14.8 | 0.00 | 0.00 | 0.00 | 47 | 1019.9 |
| 20260506193958 | 49 | 271 | 6.1 | 12.2 | 0.00 | 0.00 | 0.00 | 48 | 1019.9 |
| 20260506193024 | 48 | 297 | 5.2 | 11.3 | 0.00 | 0.00 | 0.00 | 47 | 1020.0 |
| 20260506192005 | 49 | 347 | 5.2 | 13.0 | 0.00 | 0.00 | 0.00 | 49 | 1020.0 |
| 20260506191029 | 48 | 303 | 5.2 | 14.8 | 0.00 | 0.00 | 0.00 | 50 | 1020.1 |
| 20260506190033 | 48 | 282 | 6.1 | 14.8 | 0.00 | 0.00 | 0.00 | 49 | 1020.1 |
| 20260506185009 | 47 | 297 | 7.0 | 14.8 | 0.00 | 0.00 | 0.00 | 49 | 1020.2 |
| 20260506184018 | 47 | 270 | 6.1 | 12.2 | 0.00 | 0.00 | 0.00 | 50 | 1020.4 |
| 20260506181916 | 47 | 316 | 6.1 | 18.2 | 0.00 | 0.00 | 0.00 | 51 | 1020.7 |
| 20260506180906 | 46 | 284 | 7.0 | 18.2 | 0.00 | 0.00 | 0.00 | 52 | 1020.7 |
| 20260506175847 | 45 | 321 | 7.8 | 17.4 | 0.00 | 0.00 | 0.00 | 52 | 1020.8 |
| 20260506174908 | 45 | 301 | 7.8 | 14.8 | 0.00 | 0.00 | 0.00 | 52 | 1020.9 |
| 20260506173933 | 45 | 345 | 7.0 | 18.2 | 0.00 | 0.00 | 0.00 | 53 | 1020.8 |
| 20260506172917 | 45 | 290 | 7.8 | 18.2 | 0.00 | 0.00 | 0.00 | 52 | 1021.0 |
| 20260506171902 | 44 | 337 | 7.0 | 16.5 | 0.00 | 0.00 | 0.00 | 54 | 1021.0 |
| 20260506165933 | 44 | 312 | 6.1 | 13.0 | 0.00 | 0.00 | 0.00 | 54 | 1021.0 |
| 20260506164945 | 44 | 289 | 7.8 | 15.6 | 0.00 | 0.00 | 0.00 | 55 | 1021.1 |
| 20260506163920 | 44 | 292 | 6.1 | 15.6 | 0.00 | 0.00 | 0.00 | 56 | 1021.1 |
| 20260506162939 | 43 | 293 | 7.0 | 17.4 | 0.00 | 0.00 | 0.00 | 55 | 1021.1 |
| 20260506161937 | 43 | 306 | 6.1 | 17.4 | 0.00 | 0.00 | 0.00 | 54 | 1021.1 |
| 20260506155901 | 43 | 354 | 6.1 | 15.6 | 0.00 | 0.00 | 0.00 | 55 | 1021.1 |
| 20260506154914 | 43 | 354 | 7.8 | 15.6 | 0.00 | 0.00 | 0.00 | 55 | 1021.1 |
| 20260506152832 | 43 | 297 | 6.1 | 13.0 | 0.00 | 0.00 | 0.00 | 56 | 1021.1 |
| 20260506151818 | 43 | 283 | 7.0 | 13.0 | 0.00 | 0.00 | 0.00 | 54 | 1021.2 |
| 20260506150802 | 42 | 327 | 7.0 | 16.5 | 0.00 | 0.00 | 0.00 | 56 | 1021.1 |
| 20260506145742 | 42 | 330 | 6.1 | 16.5 | 0.00 | 0.00 | 0.00 | 57 | 1021.1 |
| 20260506144717 | 41 | 299 | 6.1 | 13.0 | 0.00 | 0.00 | 0.00 | 58 | 1021.2 |
| 20260506143722 | 41 | 298 | 5.2 | 12.2 | 0.00 | 0.00 | 0.00 | 59 | 1021.2 |
| 20260506142714 | 41 | 288 | 6.1 | 12.2 | 0.00 | 0.00 | 0.00 | 59 | 1021.1 |
| 20260506141650 | 41 | 291 | 5.2 | 11.3 | 0.00 | 0.00 | 0.00 | 62 | 1021.0 |
| 20260506140653 | 41 | 354 | 5.2 | 12.2 | 0.00 | 0.00 | 0.00 | 62 | 1021.0 |
| 20260506135704 | 40 | 287 | 6.1 | 12.2 | 0.00 | 0.00 | 0.00 | 63 | 1021.0 |
| 20260506134701 | 40 | 291 | 4.3 | 11.3 | 0.00 | 0.00 | 0.00 | 63 | 1021.0 |
| 20260506133654 | 40 | 289 | 5.2 | 10.4 | 0.00 | 0.00 | 0.00 | 66 | 1021.0 |
| 20260506131703 | 39 | 293 | 2.6 | 8.7 | 0.00 | 0.00 | 0.00 | 69 | 1020.9 |
| 20260506125656 | 39 | 282 | 1.7 | 7.8 | 0.00 | 0.00 | 0.00 | 69 | 1020.8 |
| 20260506124708 | 38 | 287 | 1.7 | 6.1 | 0.00 | 0.00 | 0.00 | 72 | 1020.7 |
| 20260506123646 | 38 | 310 | 0.9 | 3.5 | 0.00 | 0.00 | 0.00 | 73 | 1020.5 |
| 20260506122700 | 37 | 289 | 0.9 | 5.2 | 0.00 | 0.00 | 0.00 | 73 | 1020.3 |
| 20260506120632 | 37 | 284 | 1.7 | 5.2 | 0.00 | 0.00 | 0.00 | 73 | 1020.3 |
| 20260506115655 | 36 | 321 | 0.9 | 4.3 | 0.00 | 0.00 | 0.00 | 74 | 1020.1 |
| 20260506114658 | 36 | 281 | 0.9 | 2.6 | 0.00 | 0.00 | 0.00 | 73 | 1019.7 |
| 20260506113721 | 36 | 276 | 0.9 | 5.2 | 0.00 | 0.00 | 0.00 | 73 | 1019.6 |
| 20260506112700 | 36 | 275 | 0.9 | 5.2 | 0.00 | 0.00 | 0.00 | 73 | 1019.8 |
| 20260506111654 | 36 | 274 | 1.7 | 4.3 | 0.00 | 0.00 | 0.00 | 73 | 1019.8 |
| 20260506110702 | 36 | 278 | 0.0 | 4.3 | 0.00 | 0.00 | 0.00 | 74 | 1019.3 |
| 20260506105720 | 36 | 297 | 0.0 | 2.6 | 0.00 | 0.00 | 0.00 | 74 | 1019.3 |
| 20260506104716 | 36 | 312 | 0.0 | 2.6 | 0.00 | 0.00 | 0.00 | 73 | 1019.3 |
| 20260506103711 | 36 | 303 | 0.0 | 2.6 | 0.00 | 0.00 | 0.00 | 73 | 1019.0 |
| 20260506102717 | 36 | 300 | 0.0 | 1.7 | 0.00 | 0.00 | 0.00 | 74 | 1019.2 |
| 20260506101723 | 36 | 318 | 0.0 | 1.7 | 0.00 | 0.00 | 0.00 | 74 | 1019.0 |
| 20260506095711 | 35 | 316 | 0.9 | 2.6 | 0.00 | 0.00 | 0.00 | 77 | 1019.1 |
| 20260506094700 | 35 | 308 | 0.0 | 1.7 | 0.00 | 0.00 | 0.00 | 78 | 1019.0 |
| 20260506092713 | 34 | 314 | 0.0 | 1.7 | 0.00 | 0.00 | 0.00 | 77 | 1018.9 |
| 20260506091701 | 34 | 316 | 0.0 | 1.7 | 0.00 | 0.00 | 0.00 | 77 | 1018.7 |
| 20260506090722 | 34 | 317 | 0.0 | 0.0 | 0.00 | 0.00 | 0.00 | 77 | 1018.5 |
| 20260506085734 | 33 | 317 | 0.0 | 0.0 | 0.00 | 0.00 | 0.00 | 77 | 1018.6 |
| 20260506084732 | 33 | 318 | 0.0 | 1.7 | 0.00 | 0.00 | 0.00 | 77 | 1018.8 |
| 20260506083735 | 33 | 320 | 0.0 | 0.0 | 0.00 | 0.00 | 0.00 | 76 | 1018.8 |
| 20260506082712 | 33 | 320 | 0.0 | 0.9 | 0.00 | 0.00 | 0.00 | 76 | 1018.7 |
| 20260506081653 | 33 | 320 | 0.0 | 0.0 | 0.00 | 0.00 | 0.00 | 76 | 1018.4 |
| 20260506080700 | 32 | 320 | 0.0 | 0.0 | 0.00 | 0.00 | 0.00 | 77 | 1018.2 |
| 20260506072615 | 33 | 320 | 0.0 | 0.0 | 0.00 | 0.00 | 0.00 | 75 | 1018.2 |
| 20260506070647 | 33 | 320 | 0.0 | 0.0 | 0.00 | 0.00 | 0.00 | 74 | 1018.5 |
| 20260506061636 | 35 | 326 | 0.0 | 0.0 | 0.00 | 0.00 | 0.00 | 70 | 1018.1 |
| 20260506060702 | 35 | 326 | 0.0 | 0.9 | 0.00 | 0.00 | 0.00 | 69 | 1018.1 |
| 20260506050706 | 37 | 4 | 0.0 | 2.6 | 0.00 | 0.00 | 0.00 | 67 | 1017.7 |